CX161 VHHH-YSSY

Flight info

Callsign CX161
Flight time N/A
Altitude 36000
Route VHHH/07C DALO1C DALOL V652 SABNO A583 ZAM A461 BUTPA DCT VEGPU DCT RUKSI DCT YUSEF DCT NOLES DCT 26S138E DCT OOM DCT APOMA Y52 VELGI Y105 TARAL Y59 TESAT DCT YSSY/16R
Aircraft A359/H-SDE3/LB1

Departure

Time 2026-05-04 17:23
Airport Hong Kong International Airport (VHHH)

Arrival

Time N/A
Airport Sydney Kingsford Smith International Airport (YSSY)
Time Latitude Longitude Altitude Speed Heading
2026-05-04 17:06 22.31271 113.92943 40 ft 0 kts 241°
2026-05-04 17:13 22.31264 113.92939 39 ft 3 kts 210°
2026-05-04 17:14 22.31018 113.92817 41 ft 18 kts 204°
2026-05-04 17:14 22.30902 113.92757 42 ft 19 kts 206°
2026-05-04 17:14 22.30771 113.92508 42 ft 21 kts 251°
2026-05-04 17:15 22.30723 113.92359 42 ft 22 kts 250°
2026-05-04 17:15 22.30809 113.92125 41 ft 21 kts 340°
2026-05-04 17:16 22.31116 113.92013 39 ft 24 kts 341°
2026-05-04 17:16 22.31442 113.91752 37 ft 19 kts 251°
2026-05-04 17:17 22.31397 113.91610 37 ft 21 kts 251°
2026-05-04 17:17 22.31246 113.91138 38 ft 24 kts 251°
2026-05-04 17:18 22.31191 113.90965 38 ft 25 kts 251°
2026-05-04 17:18 22.31074 113.90599 37 ft 27 kts 251°
2026-05-04 17:19 22.30948 113.90215 38 ft 26 kts 250°
2026-05-04 17:19 22.30828 113.89836 38 ft 24 kts 251°
2026-05-04 17:20 22.30911 113.89704 37 ft 0 kts 340°
2026-05-04 17:20 22.30924 113.89700 37 ft 5 kts 341°
2026-05-04 17:20 22.30976 113.89681 37 ft 11 kts 341°
2026-05-04 17:21 22.31065 113.89729 37 ft 0 kts 69°
2026-05-04 17:21 22.31182 113.90086 37 ft 80 kts 71°
2026-05-04 17:22 22.31428 113.90850 38 ft 134 kts 71°
2026-05-04 17:22 22.31783 113.91936 275 ft 160 kts 72°
2026-05-04 17:23 22.32770 113.95193 2160 ft 152 kts 77°
2026-05-04 17:23 22.33114 113.96339 2430 ft 169 kts 78°
2026-05-04 17:23 22.33632 113.99069 2982 ft 205 kts 85°
2026-05-04 17:24 22.33717 114.00654 3372 ft 216 kts 97°
2026-05-04 17:24 22.31246 114.04742 4870 ft 235 kts 152°
2026-05-04 17:25 22.29827 114.05647 5434 ft 239 kts 154°
2026-05-04 17:25 22.26925 114.07483 6691 ft 244 kts 154°
2026-05-04 17:26 22.23764 114.08627 7973 ft 244 kts 183°
2026-05-04 17:26 22.18228 114.08581 9462 ft 281 kts 178°
2026-05-04 17:27 22.14836 114.10773 10451 ft 314 kts 128°
2026-05-04 17:27 22.12688 114.15190 11028 ft 349 kts 120°
2026-05-04 17:28 22.10419 114.20070 11571 ft 378 kts 120°
2026-05-04 17:29 22.06042 114.27349 12819 ft 391 kts 145°
2026-05-04 17:29 21.99362 114.32621 14179 ft 402 kts 148°
2026-05-04 17:30 21.92531 114.37992 15478 ft 411 kts 148°
2026-05-04 17:31 21.87884 114.41656 16326 ft 417 kts 147°
2026-05-04 17:31 21.83159 114.49587 17581 ft 438 kts 108°
2026-05-04 17:32 21.81593 114.55929 18014 ft 443 kts 108°
2026-05-04 17:33 21.79147 114.65548 18027 ft 444 kts 109°
2026-05-04 17:33 21.78322 114.68748 18012 ft 444 kts 109°
2026-05-04 17:34 21.75837 114.78343 18028 ft 443 kts 109°
2026-05-04 17:34 21.75008 114.81495 18014 ft 443 kts 110°
2026-05-04 17:35 21.70527 114.90025 18456 ft 439 kts 131°
2026-05-04 17:35 21.66701 114.95190 19160 ft 444 kts 133°
2026-05-04 17:35 21.64769 114.97793 19512 ft 446 kts 132°
2026-05-04 17:36 21.62841 115.00433 19862 ft 449 kts 132°
2026-05-04 17:36 21.60926 115.03093 20181 ft 452 kts 131°
2026-05-04 17:36 21.59003 115.05787 20511 ft 454 kts 131°
2026-05-04 17:36 21.57080 115.08494 20864 ft 457 kts 131°
2026-05-04 17:37 21.55149 115.11214 21205 ft 460 kts 131°
2026-05-04 17:37 21.53037 115.13783 21557 ft 458 kts 141°
2026-05-04 17:37 21.50603 115.15976 21876 ft 457 kts 147°
2026-05-04 17:37 21.48038 115.18011 22206 ft 459 kts 150°
2026-05-04 17:38 21.45428 115.19946 22556 ft 460 kts 151°
2026-05-04 17:38 21.42770 115.21858 22900 ft 463 kts 152°
2026-05-04 17:38 21.40076 115.23782 23242 ft 465 kts 152°
2026-05-04 17:38 21.37373 115.25718 23581 ft 468 kts 152°
2026-05-04 17:39 21.31951 115.29642 24130 ft 472 kts 151°
2026-05-04 17:39 21.29219 115.31634 24415 ft 475 kts 151°
2026-05-04 17:39 21.26512 115.33611 24704 ft 477 kts 151°
2026-05-04 17:40 21.23757 115.35627 25013 ft 479 kts 151°
2026-05-04 17:40 21.20989 115.37651 25337 ft 481 kts 151°
2026-05-04 17:40 21.18212 115.39676 25668 ft 484 kts 152°
2026-05-04 17:40 21.15424 115.41706 25997 ft 486 kts 152°
2026-05-04 17:41 21.12618 115.43747 26342 ft 489 kts 152°
2026-05-04 17:41 21.09800 115.45796 26695 ft 491 kts 152°
2026-05-04 17:41 21.06959 115.47866 27037 ft 494 kts 152°
2026-05-04 17:41 21.04112 115.49943 27381 ft 496 kts 152°
2026-05-04 17:42 21.01279 115.52006 27729 ft 499 kts 152°
2026-05-04 17:42 20.98400 115.54102 28072 ft 501 kts 152°
2026-05-04 17:42 20.95511 115.56207 28404 ft 504 kts 152°
2026-05-04 17:42 20.92590 115.58329 28745 ft 506 kts 152°
2026-05-04 17:43 20.90656 115.59732 28969 ft 508 kts 152°
2026-05-04 17:43 20.87715 115.61865 29271 ft 511 kts 152°
2026-05-04 17:43 20.83798 115.64701 29683 ft 514 kts 152°
2026-05-04 17:43 20.80827 115.66849 29985 ft 516 kts 152°
2026-05-04 17:44 20.78860 115.68273 30144 ft 517 kts 152°
2026-05-04 17:44 20.75873 115.70441 30363 ft 520 kts 152°
2026-05-04 17:44 20.72869 115.72619 30576 ft 522 kts 152°
2026-05-04 17:44 20.69845 115.74806 30789 ft 524 kts 152°
2026-05-04 17:45 20.66823 115.76993 31072 ft 524 kts 152°
2026-05-04 17:45 20.63797 115.79180 31375 ft 524 kts 152°
2026-05-04 17:45 20.60778 115.81361 31667 ft 525 kts 152°
2026-05-04 17:45 20.57744 115.83549 31951 ft 525 kts 152°
2026-05-04 17:46 20.54725 115.85725 32227 ft 525 kts 152°
2026-05-04 17:46 20.51730 115.87882 32504 ft 525 kts 152°
2026-05-04 17:46 20.48703 115.90064 32789 ft 525 kts 152°
2026-05-04 17:46 20.45678 115.92247 33068 ft 525 kts 153°
2026-05-04 17:47 20.42642 115.94436 33340 ft 525 kts 152°
2026-05-04 17:47 20.39612 115.96625 33605 ft 526 kts 152°
2026-05-04 17:47 20.36520 115.98657 33926 ft 519 kts 159°
2026-05-04 17:47 20.33240 116.00210 34169 ft 512 kts 168°
2026-05-04 17:48 20.29822 116.01175 34414 ft 503 kts 178°
2026-05-04 17:48 20.26369 116.01510 34656 ft 494 kts 187°
2026-05-04 17:48 20.22963 116.01298 34865 ft 489 kts 193°
2026-05-04 17:48 20.19586 116.00888 35081 ft 487 kts 194°
2026-05-04 17:49 20.16234 116.00407 35325 ft 486 kts 195°
2026-05-04 17:49 20.12926 115.99912 35573 ft 485 kts 195°
2026-05-04 17:49 20.09591 115.99413 35815 ft 484 kts 195°
2026-05-04 17:49 20.06239 115.98921 35956 ft 485 kts 195°
2026-05-04 17:50 19.99555 115.97971 35972 ft 485 kts 194°
2026-05-04 17:50 19.92834 115.97053 35970 ft 485 kts 194°
2026-05-04 17:51 19.86128 115.96137 35969 ft 486 kts 194°
2026-05-04 17:51 19.79469 115.95218 35969 ft 486 kts 194°
2026-05-04 17:52 19.72745 115.94290 35968 ft 486 kts 194°
2026-05-04 17:52 19.66027 115.93371 35968 ft 487 kts 194°
2026-05-04 17:53 19.59303 115.92448 35964 ft 487 kts 194°
2026-05-04 17:53 19.52581 115.91509 35967 ft 487 kts 194°
2026-05-04 17:54 19.45850 115.90567 35967 ft 487 kts 194°
2026-05-04 17:54 19.39176 115.89646 35954 ft 487 kts 194°
2026-05-04 17:55 19.32438 115.88725 35962 ft 487 kts 194°
2026-05-04 17:55 19.25701 115.87815 35954 ft 488 kts 193°
2026-05-04 17:56 19.18965 115.86906 35952 ft 488 kts 193°
2026-05-04 17:56 19.12225 115.85998 35951 ft 488 kts 193°
2026-05-04 17:57 19.05485 115.85103 35947 ft 488 kts 193°
2026-05-04 17:57 18.98672 115.85253 35954 ft 501 kts 176°
2026-05-04 17:58 18.92015 115.87635 35957 ft 511 kts 160°
2026-05-04 17:58 18.85666 115.91037 35946 ft 511 kts 158°
2026-05-04 17:59 18.79395 115.94556 35946 ft 510 kts 158°
2026-05-04 18:00 18.69968 115.99779 35943 ft 509 kts 158°
2026-05-04 18:00 18.63674 116.03221 35942 ft 509 kts 158°
2026-05-04 18:01 18.57385 116.06650 35940 ft 509 kts 158°
2026-05-04 18:01 18.51126 116.10060 35934 ft 509 kts 158°
2026-05-04 18:02 18.41672 116.15207 35933 ft 508 kts 159°
2026-05-04 18:02 18.35392 116.18620 35935 ft 508 kts 159°
2026-05-04 18:03 18.29114 116.22028 35934 ft 508 kts 158°
2026-05-04 18:03 18.22872 116.25418 35932 ft 507 kts 159°
2026-05-04 18:04 18.16587 116.28817 35928 ft 507 kts 159°
2026-05-04 18:05 18.07176 116.33913 35929 ft 507 kts 158°
2026-05-04 18:05 18.00899 116.37320 35923 ft 507 kts 159°
2026-05-04 18:06 17.91499 116.42407 35919 ft 507 kts 158°
2026-05-04 18:06 17.85223 116.45803 35922 ft 507 kts 158°
2026-05-04 18:07 17.78987 116.49178 35924 ft 507 kts 158°
2026-05-04 18:07 17.72710 116.52565 35922 ft 507 kts 158°
2026-05-04 18:08 17.66433 116.55946 35923 ft 507 kts 158°
2026-05-04 18:08 17.60163 116.59320 35919 ft 507 kts 158°
2026-05-04 18:09 17.47607 116.66086 35915 ft 507 kts 158°
2026-05-04 18:10 17.41333 116.69461 35914 ft 507 kts 158°
2026-05-04 18:10 17.35067 116.72828 35909 ft 507 kts 158°
2026-05-04 18:11 17.28785 116.76202 35911 ft 507 kts 158°
2026-05-04 18:11 17.22512 116.79567 35909 ft 507 kts 158°
2026-05-04 18:12 17.16274 116.82910 35908 ft 507 kts 158°
2026-05-04 18:12 17.09981 116.86280 35909 ft 507 kts 158°
2026-05-04 18:13 17.03700 116.89642 35907 ft 507 kts 158°
2026-05-04 18:14 16.94288 116.94674 35907 ft 507 kts 158°
2026-05-04 18:14 16.87996 116.98036 35905 ft 507 kts 158°
2026-05-04 18:15 16.75468 117.04720 35905 ft 507 kts 158°
2026-05-04 18:16 16.69176 117.08074 35907 ft 506 kts 158°
2026-05-04 18:16 16.62908 117.11414 35905 ft 506 kts 158°
2026-05-04 18:17 16.53534 117.16403 35907 ft 505 kts 158°
2026-05-04 18:18 16.44139 117.21400 35906 ft 505 kts 158°
2026-05-04 18:18 16.37865 117.24733 35906 ft 505 kts 158°
2026-05-04 18:19 16.28506 117.29695 35902 ft 504 kts 158°
2026-05-04 18:19 16.22253 117.33010 35901 ft 504 kts 158°
2026-05-04 18:20 16.15982 117.36327 35903 ft 504 kts 158°
2026-05-04 18:20 16.09724 117.39639 35903 ft 504 kts 158°
2026-05-04 18:21 16.03468 117.42943 35903 ft 504 kts 158°
2026-05-04 18:21 15.97213 117.46245 35900 ft 504 kts 158°
2026-05-04 18:22 15.90985 117.49533 35901 ft 505 kts 158°
2026-05-04 18:22 15.84722 117.52837 35900 ft 505 kts 158°
2026-05-04 18:23 15.78445 117.56146 35900 ft 505 kts 158°
2026-05-04 18:23 15.72183 117.59447 35899 ft 505 kts 158°
2026-05-04 18:24 15.65958 117.62728 35898 ft 505 kts 158°
2026-05-04 18:24 15.59693 117.66025 35898 ft 505 kts 158°
2026-05-04 18:25 15.53437 117.69316 35897 ft 505 kts 158°
2026-05-04 18:25 15.47155 117.72618 35894 ft 504 kts 158°
2026-05-04 18:26 15.40891 117.75909 35894 ft 504 kts 158°
2026-05-04 18:26 15.34633 117.79194 35896 ft 504 kts 158°
2026-05-04 18:27 15.28418 117.82453 35888 ft 503 kts 158°
2026-05-04 18:27 15.22184 117.85722 35890 ft 502 kts 157°
2026-05-04 18:28 15.15956 117.88984 35890 ft 501 kts 157°
2026-05-04 18:28 15.10786 117.91690 35890 ft 500 kts 157°
2026-05-04 18:29 15.03564 117.95469 35885 ft 499 kts 157°
2026-05-04 18:29 14.98379 117.98181 35886 ft 498 kts 157°
2026-05-04 18:30 14.89099 118.03029 35889 ft 498 kts 157°
2026-05-04 18:31 14.82962 118.06234 35886 ft 497 kts 157°
2026-05-04 18:31 14.76793 118.09452 35888 ft 497 kts 157°
2026-05-04 18:32 14.70608 118.12678 35885 ft 497 kts 157°
2026-05-04 18:32 14.64427 118.15899 35887 ft 496 kts 157°
2026-05-04 18:33 14.58259 118.19111 35881 ft 496 kts 157°
2026-05-04 18:33 14.52088 118.22323 35883 ft 496 kts 157°
2026-05-04 18:34 14.45917 118.25531 35882 ft 496 kts 157°
2026-05-04 18:34 14.39784 118.28720 35882 ft 496 kts 157°
2026-05-04 18:35 14.33614 118.31927 35885 ft 496 kts 156°
2026-05-04 18:35 14.27440 118.35137 35884 ft 496 kts 157°
2026-05-04 18:36 14.21303 118.38323 35884 ft 496 kts 157°
2026-05-04 18:36 14.15133 118.41518 35883 ft 496 kts 157°
2026-05-04 18:37 14.08963 118.44710 35880 ft 496 kts 157°
2026-05-04 18:37 14.02792 118.47903 35880 ft 496 kts 157°
2026-05-04 18:38 13.96611 118.51103 35884 ft 496 kts 156°
2026-05-04 18:38 13.90481 118.54274 35883 ft 496 kts 156°
2026-05-04 18:39 13.84315 118.57462 35884 ft 496 kts 156°
2026-05-04 18:39 13.78141 118.60651 35883 ft 496 kts 156°
2026-05-04 18:40 13.71973 118.63834 35884 ft 496 kts 156°
2026-05-04 18:40 13.65798 118.67020 35881 ft 496 kts 156°
2026-05-04 18:41 13.59632 118.70201 35877 ft 496 kts 156°
2026-05-04 18:41 13.53485 118.73371 35879 ft 495 kts 156°
2026-05-04 18:42 13.47318 118.76546 35880 ft 495 kts 156°
2026-05-04 18:42 13.41150 118.79721 35882 ft 495 kts 156°
2026-05-04 18:43 13.34978 118.82895 35882 ft 496 kts 156°
2026-05-04 18:43 13.28848 118.86045 35878 ft 496 kts 156°
2026-05-04 18:44 13.22650 118.89231 35879 ft 497 kts 156°
2026-05-04 18:44 13.16456 118.92413 35877 ft 498 kts 156°
2026-05-04 18:45 13.10266 118.95591 35875 ft 498 kts 156°
2026-05-04 18:45 13.04088 118.98759 35876 ft 498 kts 156°
2026-05-04 18:46 12.97864 119.01952 35876 ft 498 kts 156°
2026-05-04 18:46 12.91662 119.05127 35874 ft 498 kts 156°
2026-05-04 18:47 12.85451 119.08306 35876 ft 498 kts 156°
2026-05-04 18:47 12.79277 119.11466 35876 ft 498 kts 156°
2026-05-04 18:48 12.73061 119.14646 35872 ft 498 kts 156°
2026-05-04 18:48 12.66885 119.17803 35871 ft 499 kts 156°
2026-05-04 18:49 12.60669 119.20975 35873 ft 499 kts 156°
2026-05-04 18:49 12.54448 119.24153 35872 ft 499 kts 156°
2026-05-04 18:50 12.48263 119.27312 35874 ft 499 kts 156°
2026-05-04 18:50 12.42043 119.30486 35874 ft 499 kts 156°
2026-05-04 18:51 12.35825 119.33656 35873 ft 499 kts 156°
2026-05-04 18:51 12.29600 119.36829 35868 ft 499 kts 156°
2026-05-04 18:52 12.23420 119.39978 35872 ft 499 kts 156°
2026-05-04 18:52 12.17185 119.43150 35871 ft 500 kts 156°
2026-05-04 18:53 12.10956 119.46318 35866 ft 500 kts 156°
2026-05-04 18:53 12.04727 119.49486 35868 ft 500 kts 156°
2026-05-04 18:54 11.98495 119.52653 35867 ft 500 kts 156°
2026-05-04 18:54 11.92259 119.55820 35865 ft 500 kts 156°
2026-05-04 18:55 11.86071 119.58961 35865 ft 500 kts 156°
2026-05-04 18:55 11.76729 119.63702 35865 ft 499 kts 156°
2026-05-04 18:56 11.70505 119.66859 35865 ft 499 kts 156°
2026-05-04 18:56 11.64278 119.70023 35864 ft 499 kts 156°
2026-05-04 18:57 11.58050 119.73190 35866 ft 499 kts 156°
2026-05-04 18:57 11.51861 119.76336 35863 ft 499 kts 156°
2026-05-04 18:58 11.45640 119.79495 35861 ft 499 kts 156°
2026-05-04 18:58 11.39410 119.82658 35863 ft 499 kts 156°
2026-05-04 18:59 11.33178 119.85820 35862 ft 499 kts 156°
2026-05-04 18:59 11.26988 119.88960 35862 ft 499 kts 156°
2026-05-04 19:00 11.20760 119.92118 35862 ft 500 kts 156°
2026-05-04 19:00 11.14536 119.95270 35862 ft 500 kts 156°
2026-05-04 19:01 11.08296 119.98428 35863 ft 500 kts 156°
2026-05-04 19:01 11.02069 120.01582 35862 ft 500 kts 156°
2026-05-04 19:02 10.95843 120.04728 35862 ft 499 kts 156°
2026-05-04 19:02 10.89615 120.07871 35862 ft 499 kts 156°
2026-05-04 19:03 10.83394 120.11009 35865 ft 499 kts 156°
2026-05-04 19:03 10.77200 120.14131 35862 ft 499 kts 156°
2026-05-04 19:04 10.70977 120.17268 35865 ft 499 kts 156°
2026-05-04 19:04 10.64752 120.20405 35865 ft 499 kts 156°
2026-05-04 19:05 10.58529 120.23540 35861 ft 499 kts 156°
2026-05-04 19:05 10.52304 120.26674 35865 ft 499 kts 156°
2026-05-04 19:06 10.46085 120.29805 35863 ft 499 kts 156°
2026-05-04 19:06 10.39903 120.32915 35863 ft 498 kts 156°
2026-05-04 19:07 10.33688 120.36040 35863 ft 497 kts 156°
2026-05-04 19:07 10.27491 120.39154 35862 ft 496 kts 156°
2026-05-04 19:08 10.21299 120.42268 35859 ft 495 kts 156°
2026-05-04 19:08 10.15116 120.45366 35858 ft 495 kts 157°
2026-05-04 19:09 10.08977 120.48432 35855 ft 494 kts 157°
2026-05-04 19:09 10.02815 120.51509 35858 ft 494 kts 156°
2026-05-04 19:10 9.96641 120.54595 35855 ft 494 kts 156°
2026-05-04 19:10 9.90483 120.57672 35858 ft 494 kts 156°
2026-05-04 19:11 9.84309 120.60755 35857 ft 494 kts 156°
2026-05-04 19:11 9.78161 120.63824 35855 ft 494 kts 156°
2026-05-04 19:12 9.68904 120.68448 35858 ft 495 kts 156°
2026-05-04 19:13 9.62719 120.71529 35856 ft 495 kts 156°
2026-05-04 19:13 9.56539 120.74605 35858 ft 495 kts 156°
2026-05-04 19:14 9.50349 120.77686 35858 ft 495 kts 156°
2026-05-04 19:14 9.45205 120.80247 35857 ft 495 kts 156°
2026-05-04 19:15 9.37997 120.83834 35857 ft 496 kts 156°
2026-05-04 19:15 9.31813 120.86911 35857 ft 495 kts 156°
2026-05-04 19:16 9.26626 120.89492 35859 ft 495 kts 156°
2026-05-04 19:16 9.20442 120.92567 35860 ft 495 kts 156°
2026-05-04 19:17 9.14258 120.95640 35859 ft 494 kts 156°
2026-05-04 19:17 9.08121 120.98691 35861 ft 494 kts 156°
2026-05-04 19:18 9.01948 121.01755 35858 ft 494 kts 156°
2026-05-04 19:18 8.95769 121.04821 35862 ft 493 kts 156°
2026-05-04 19:19 8.89599 121.07882 35862 ft 493 kts 156°
2026-05-04 19:19 8.83431 121.10942 35860 ft 493 kts 156°
2026-05-04 19:20 8.77317 121.13973 35863 ft 493 kts 156°
2026-05-04 19:20 8.71144 121.17032 35862 ft 492 kts 156°
2026-05-04 19:21 8.64988 121.20082 35863 ft 492 kts 156°
2026-05-04 19:21 8.58826 121.23135 35863 ft 492 kts 156°
2026-05-04 19:22 8.52712 121.26163 35865 ft 492 kts 156°
2026-05-04 19:22 8.46561 121.29207 35863 ft 492 kts 156°
2026-05-04 19:23 8.40395 121.32257 35863 ft 492 kts 156°
2026-05-04 19:23 8.34288 121.35277 35860 ft 492 kts 156°
2026-05-04 19:24 8.28134 121.38320 35860 ft 492 kts 156°
2026-05-04 19:24 8.21993 121.41356 35860 ft 491 kts 156°
2026-05-04 19:25 8.15850 121.44391 35857 ft 492 kts 156°
2026-05-04 19:25 8.09691 121.47433 35857 ft 492 kts 156°
2026-05-04 19:26 8.03542 121.50468 35855 ft 492 kts 156°
2026-05-04 19:26 7.97418 121.53489 35853 ft 492 kts 156°
2026-05-04 19:27 7.91261 121.56526 35855 ft 493 kts 156°
2026-05-04 19:27 7.85093 121.59569 35856 ft 493 kts 156°
2026-05-04 19:28 7.78928 121.62609 35853 ft 493 kts 156°
2026-05-04 19:28 7.72762 121.65648 35855 ft 493 kts 156°
2026-05-04 19:29 7.66597 121.68686 35854 ft 492 kts 156°
2026-05-04 19:29 7.60439 121.71719 35854 ft 492 kts 156°
2026-05-04 19:30 7.54321 121.74732 35855 ft 492 kts 156°
2026-05-04 19:30 7.48152 121.77768 35853 ft 492 kts 156°
2026-05-04 19:31 7.41988 121.80801 35859 ft 492 kts 156°
2026-05-04 19:31 7.35871 121.83810 35860 ft 492 kts 156°
2026-05-04 19:32 7.29709 121.86841 35862 ft 492 kts 156°
2026-05-04 19:32 7.23560 121.89869 35867 ft 491 kts 156°
2026-05-04 19:33 7.17416 121.92891 35867 ft 491 kts 156°
2026-05-04 19:33 7.11301 121.95898 35867 ft 491 kts 156°
2026-05-04 19:34 7.05152 121.98923 35868 ft 492 kts 156°
2026-05-04 19:34 6.99006 122.01946 35870 ft 492 kts 156°
2026-05-04 19:35 6.92855 122.04971 35869 ft 492 kts 156°
2026-05-04 19:35 6.86794 122.08177 35869 ft 493 kts 152°
2026-05-04 19:36 6.80873 122.11664 35866 ft 492 kts 152°
2026-05-04 19:36 6.74959 122.15139 35866 ft 492 kts 152°
2026-05-04 19:37 6.69019 122.18563 35865 ft 492 kts 152°
2026-05-04 19:37 6.63108 122.21939 35863 ft 492 kts 152°
2026-05-04 19:38 6.57149 122.25338 35862 ft 492 kts 152°
2026-05-04 19:38 6.51190 122.28745 35863 ft 492 kts 152°
2026-05-04 19:39 6.45225 122.32149 35861 ft 492 kts 152°
2026-05-04 19:39 6.39274 122.35543 35862 ft 492 kts 152°
2026-05-04 19:40 6.33314 122.38943 35860 ft 492 kts 152°
2026-05-04 19:40 6.27397 122.42318 35858 ft 492 kts 152°
2026-05-04 19:41 6.21444 122.45713 35853 ft 491 kts 152°
2026-05-04 19:41 6.15485 122.49111 35852 ft 491 kts 152°
2026-05-04 19:42 6.09542 122.52498 35853 ft 491 kts 152°
2026-05-04 19:42 6.03601 122.55883 35855 ft 491 kts 152°
2026-05-04 19:43 5.97647 122.59274 35854 ft 491 kts 152°
2026-05-04 19:43 5.91734 122.62642 35855 ft 491 kts 152°
2026-05-04 19:44 5.85788 122.66027 35854 ft 492 kts 152°
2026-05-04 19:44 5.79828 122.69418 35857 ft 492 kts 152°
2026-05-04 19:45 5.73864 122.72813 35855 ft 492 kts 152°
2026-05-04 19:45 5.67907 122.76203 35857 ft 492 kts 152°
2026-05-04 19:46 5.61994 122.79565 35856 ft 491 kts 152°
2026-05-04 19:46 5.56042 122.82950 35859 ft 492 kts 152°
2026-05-04 19:47 5.50080 122.86338 35858 ft 492 kts 152°
2026-05-04 19:47 5.44112 122.89730 35855 ft 492 kts 152°
2026-05-04 19:48 5.38154 122.93116 35857 ft 492 kts 152°
2026-05-04 19:48 5.32226 122.96483 35855 ft 492 kts 152°
2026-05-04 19:49 5.26258 122.99874 35858 ft 492 kts 152°
2026-05-04 19:49 5.20291 123.03263 35857 ft 492 kts 152°
2026-05-04 19:50 5.14326 123.06649 35855 ft 492 kts 152°
2026-05-04 19:50 5.08369 123.10031 35857 ft 492 kts 152°
2026-05-04 19:51 5.02458 123.13387 35855 ft 491 kts 152°
2026-05-04 19:51 4.96502 123.16766 35856 ft 491 kts 152°
2026-05-04 19:52 4.90550 123.20142 35857 ft 491 kts 152°
2026-05-04 19:52 4.84594 123.23520 35857 ft 492 kts 152°
2026-05-04 19:53 4.78632 123.26901 35854 ft 492 kts 152°
2026-05-04 19:53 4.72676 123.30278 35854 ft 491 kts 152°
2026-05-04 19:54 4.66755 123.33634 35855 ft 492 kts 152°
2026-05-04 19:54 4.60803 123.37007 35852 ft 491 kts 152°
2026-05-04 19:55 4.54856 123.40377 35851 ft 491 kts 152°
2026-05-04 19:55 4.48891 123.43757 35851 ft 491 kts 152°
2026-05-04 19:56 4.42928 123.47135 35851 ft 492 kts 152°
2026-05-04 19:56 4.36975 123.50506 35852 ft 492 kts 152°
2026-05-04 19:57 4.31011 123.53883 35848 ft 492 kts 152°
2026-05-04 19:57 4.25084 123.57238 35847 ft 492 kts 152°
2026-05-04 19:58 4.19117 123.60615 35849 ft 492 kts 152°
2026-05-04 19:58 4.14165 123.63418 35847 ft 492 kts 152°
2026-05-04 19:59 4.08196 123.66795 35850 ft 492 kts 152°
2026-05-04 19:59 4.02230 123.70170 35848 ft 492 kts 152°
2026-05-04 20:00 3.95321 123.74141 35851 ft 492 kts 150°
2026-05-04 20:00 3.89449 123.77666 35849 ft 492 kts 150°
2026-05-04 20:01 3.84576 123.80600 35850 ft 491 kts 150°
2026-05-04 20:01 3.78701 123.84116 35847 ft 491 kts 150°
2026-05-04 20:02 3.72813 123.87624 35849 ft 491 kts 150°
2026-05-04 20:02 3.66935 123.91121 35848 ft 491 kts 150°
2026-05-04 20:03 3.61060 123.94617 35848 ft 491 kts 150°
2026-05-04 20:03 3.55179 123.98117 35848 ft 491 kts 150°
2026-05-04 20:04 3.49338 124.01593 35850 ft 491 kts 150°
2026-05-04 20:04 3.43462 124.05089 35852 ft 491 kts 150°
2026-05-04 20:05 3.37579 124.08588 35854 ft 491 kts 150°
2026-05-04 20:05 3.31709 124.12081 35853 ft 490 kts 150°
2026-05-04 20:06 3.25879 124.15549 35850 ft 490 kts 150°
2026-05-04 20:06 3.19996 124.19047 35852 ft 490 kts 150°
2026-05-04 20:07 3.14127 124.22536 35850 ft 490 kts 150°
2026-05-04 20:07 3.08295 124.26004 35851 ft 490 kts 150°
2026-05-04 20:08 3.02426 124.29493 35849 ft 490 kts 150°
2026-05-04 20:08 2.96559 124.32980 35850 ft 490 kts 150°
2026-05-04 20:09 2.90693 124.36467 35851 ft 490 kts 150°
2026-05-04 20:09 2.84828 124.39952 35850 ft 490 kts 150°
2026-05-04 20:10 2.78989 124.43420 35851 ft 490 kts 150°
2026-05-04 20:10 2.73125 124.46904 35849 ft 490 kts 151°
2026-05-04 20:11 2.67263 124.50386 35848 ft 490 kts 151°
2026-05-04 20:11 2.61398 124.53870 35846 ft 490 kts 151°
2026-05-04 20:12 2.55534 124.57352 35843 ft 489 kts 151°
2026-05-04 20:12 2.49709 124.60811 35847 ft 489 kts 151°
2026-05-04 20:13 2.43865 124.64282 35847 ft 489 kts 151°
2026-05-04 20:13 2.38001 124.67763 35849 ft 489 kts 151°
2026-05-04 20:14 2.32141 124.71242 35848 ft 489 kts 151°
2026-05-04 20:14 2.26278 124.74722 35849 ft 489 kts 151°
2026-05-04 20:15 2.20461 124.78174 35851 ft 489 kts 151°
2026-05-04 20:15 2.14605 124.81649 35851 ft 489 kts 151°
2026-05-04 20:16 2.08752 124.85122 35850 ft 488 kts 151°
2026-05-04 20:16 2.02906 124.88592 35857 ft 488 kts 151°
2026-05-04 20:17 1.97047 124.92026 35856 ft 488 kts 152°
2026-05-04 20:17 1.91201 124.95424 35867 ft 488 kts 152°
2026-05-04 20:18 1.85335 124.98839 35883 ft 488 kts 151°
2026-05-04 20:18 1.79464 125.02265 35903 ft 488 kts 151°
2026-05-04 20:19 1.73604 125.05687 35914 ft 488 kts 151°
2026-05-04 20:19 1.67736 125.09114 35923 ft 488 kts 151°
2026-05-04 20:20 1.61879 125.12534 35927 ft 488 kts 151°
2026-05-04 20:20 1.56002 125.15965 35925 ft 488 kts 151°
2026-05-04 20:21 1.50138 125.19389 35920 ft 488 kts 151°
2026-05-04 20:21 1.41370 125.24508 35906 ft 488 kts 151°
2026-05-04 20:22 1.35492 125.27939 35898 ft 488 kts 152°
2026-05-04 20:22 1.29664 125.31342 35889 ft 488 kts 152°
2026-05-04 20:23 1.23794 125.34769 35881 ft 488 kts 152°
2026-05-04 20:23 1.17928 125.38193 35875 ft 488 kts 152°
2026-05-04 20:24 1.12058 125.41619 35865 ft 488 kts 152°
2026-05-04 20:24 1.06183 125.45047 35860 ft 488 kts 152°
2026-05-04 20:25 1.00317 125.48471 35853 ft 488 kts 152°
2026-05-04 20:25 0.94449 125.51895 35850 ft 488 kts 152°
2026-05-04 20:26 0.88621 125.55296 35851 ft 488 kts 152°
2026-05-04 20:26 0.82752 125.58720 35850 ft 488 kts 152°
2026-05-04 20:27 0.76880 125.62147 35851 ft 488 kts 152°
2026-05-04 20:27 0.71014 125.65569 35850 ft 488 kts 152°
2026-05-04 20:28 0.65144 125.68994 35850 ft 488 kts 152°
2026-05-04 20:28 0.59318 125.72393 35851 ft 487 kts 152°
2026-05-04 20:29 0.53462 125.75810 35852 ft 488 kts 152°
2026-05-04 20:29 0.47596 125.79232 35850 ft 488 kts 152°
2026-05-04 20:30 0.41732 125.82653 35850 ft 488 kts 152°
2026-05-04 20:30 0.35870 125.86072 35851 ft 487 kts 152°
2026-05-04 20:31 0.30014 125.89488 35850 ft 487 kts 152°
2026-05-04 20:31 0.24159 125.92904 35852 ft 487 kts 152°
2026-05-04 20:32 0.18300 125.96321 35850 ft 487 kts 152°
2026-05-04 20:32 0.12444 125.99736 35851 ft 487 kts 152°
2026-05-04 20:33 0.06587 126.03153 35851 ft 487 kts 152°
2026-05-04 20:33 0.00770 126.06546 35854 ft 487 kts 152°
2026-05-04 20:34 -0.05094 126.09966 35854 ft 487 kts 152°
2026-05-04 20:34 -0.10954 126.13385 35855 ft 487 kts 152°
2026-05-04 20:35 -0.16778 126.16782 35853 ft 487 kts 151°
2026-05-04 20:35 -0.22635 126.20199 35854 ft 487 kts 151°
2026-05-04 20:36 -0.28499 126.23620 35855 ft 487 kts 151°
2026-05-04 20:36 -0.34356 126.27036 35854 ft 487 kts 151°
2026-05-04 20:37 -0.40174 126.30431 35852 ft 487 kts 151°
2026-05-04 20:37 -0.46035 126.33850 35853 ft 488 kts 151°
2026-05-04 20:38 -0.51893 126.37267 35851 ft 488 kts 151°
2026-05-04 20:38 -0.57771 126.40696 35850 ft 488 kts 151°
2026-05-04 20:39 -0.63615 126.44105 35849 ft 489 kts 151°
2026-05-04 20:39 -0.69489 126.47532 35849 ft 489 kts 151°
2026-05-04 20:40 -0.75369 126.50963 35847 ft 489 kts 151°
2026-05-04 20:40 -0.81251 126.54394 35849 ft 489 kts 151°
2026-05-04 20:41 -0.87092 126.57802 35851 ft 489 kts 151°
2026-05-04 20:41 -0.92995 126.61247 35850 ft 490 kts 151°
2026-05-04 20:42 -0.98878 126.64679 35850 ft 490 kts 151°
2026-05-04 20:42 -1.04768 126.68115 35851 ft 490 kts 151°
2026-05-04 20:43 -1.09667 126.70975 35852 ft 490 kts 152°
2026-05-04 20:43 -1.15566 126.74418 35852 ft 490 kts 152°
2026-05-04 20:44 -1.21462 126.77859 35850 ft 491 kts 152°
2026-05-04 20:44 -1.27325 126.81280 35852 ft 490 kts 152°
2026-05-04 20:45 -1.33227 126.84725 35852 ft 491 kts 152°
2026-05-04 20:45 -1.39119 126.88165 35851 ft 491 kts 152°
2026-05-04 20:46 -1.45014 126.91606 35851 ft 491 kts 152°
2026-05-04 20:46 -1.50907 126.95047 35851 ft 491 kts 152°
2026-05-04 20:47 -1.56823 126.98501 35850 ft 491 kts 152°
2026-05-04 20:47 -1.62687 127.01925 35851 ft 491 kts 152°
2026-05-04 20:48 -1.68590 127.05371 35850 ft 491 kts 152°
2026-05-04 20:48 -1.74499 127.08821 35850 ft 491 kts 152°
2026-05-04 20:49 -1.80374 127.12253 35853 ft 491 kts 152°
2026-05-04 20:49 -1.86289 127.15708 35851 ft 492 kts 152°
2026-05-04 20:50 -1.92215 127.19169 35854 ft 492 kts 152°
2026-05-04 20:50 -1.98131 127.22624 35854 ft 493 kts 152°
2026-05-04 20:51 -2.04054 127.26084 35853 ft 493 kts 152°
2026-05-04 20:51 -2.09941 127.29523 35854 ft 493 kts 152°
2026-05-04 20:52 -2.15882 127.32994 35855 ft 494 kts 152°
2026-05-04 20:52 -2.21820 127.36463 35853 ft 494 kts 151°
2026-05-04 20:53 -2.27752 127.39930 35854 ft 494 kts 151°
2026-05-04 20:53 -2.33695 127.43404 35854 ft 494 kts 151°
2026-05-04 20:54 -2.39596 127.46853 35853 ft 494 kts 151°
2026-05-04 20:54 -2.45529 127.50321 35853 ft 493 kts 151°
2026-05-04 20:55 -2.51462 127.53790 35852 ft 493 kts 151°
2026-05-04 20:55 -2.57388 127.57254 35853 ft 493 kts 151°
2026-05-04 20:56 -2.63310 127.60717 35855 ft 492 kts 152°
2026-05-04 20:56 -2.69229 127.64178 35853 ft 492 kts 152°
2026-05-04 20:57 -2.75139 127.67634 35854 ft 492 kts 152°
2026-05-04 20:57 -2.81058 127.71097 35856 ft 493 kts 152°
2026-05-04 20:58 -2.86944 127.74539 35853 ft 493 kts 152°
2026-05-04 20:58 -2.92868 127.78004 35854 ft 493 kts 152°
2026-05-04 20:59 -2.98802 127.81476 35854 ft 493 kts 152°
2026-05-04 20:59 -3.04727 127.84943 35855 ft 493 kts 152°
2026-05-04 21:00 -3.10649 127.88409 35855 ft 493 kts 152°
2026-05-04 21:00 -3.16575 127.91877 35851 ft 493 kts 152°
2026-05-04 21:01 -3.22467 127.95326 35850 ft 493 kts 152°
2026-05-04 21:01 -3.28399 127.98800 35852 ft 494 kts 152°
2026-05-04 21:02 -3.34324 128.02270 35850 ft 494 kts 152°
2026-05-04 21:02 -3.40262 128.05749 35847 ft 494 kts 152°
2026-05-04 21:03 -3.46186 128.09219 35840 ft 494 kts 152°
2026-05-04 21:03 -3.52119 128.12694 35835 ft 494 kts 152°
2026-05-04 21:04 -3.58022 128.16153 35829 ft 493 kts 152°
2026-05-04 21:04 -3.64242 128.19014 35826 ft 491 kts 163°
2026-05-04 21:05 -3.70789 128.21069 35830 ft 493 kts 165°
2026-05-04 21:05 -3.77388 128.22999 35833 ft 494 kts 165°
2026-05-04 21:06 -3.83987 128.24931 35838 ft 494 kts 165°
2026-05-04 21:06 -3.90546 128.26873 35854 ft 494 kts 165°
2026-05-04 21:07 -3.97136 128.28835 35854 ft 493 kts 165°
2026-05-04 21:07 -4.03710 128.30792 35857 ft 493 kts 165°
2026-05-04 21:08 -4.10280 128.32746 35859 ft 493 kts 165°
2026-05-04 21:08 -4.16859 128.34707 35855 ft 492 kts 165°
2026-05-04 21:09 -4.23431 128.36668 35857 ft 493 kts 165°
2026-05-04 21:09 -4.29994 128.38625 35857 ft 493 kts 165°
2026-05-04 21:10 -4.36543 128.40576 35859 ft 493 kts 165°
2026-05-04 21:10 -4.43118 128.42535 35858 ft 493 kts 165°
2026-05-04 21:11 -4.49712 128.44500 35859 ft 494 kts 165°
2026-05-04 21:11 -4.56305 128.46465 35858 ft 495 kts 165°
2026-05-04 21:12 -4.62904 128.48432 35858 ft 495 kts 165°
2026-05-04 21:12 -4.69474 128.50392 35858 ft 495 kts 165°
2026-05-04 21:13 -4.76093 128.52366 35861 ft 496 kts 165°
2026-05-04 21:13 -4.82701 128.54338 35858 ft 496 kts 165°
2026-05-04 21:14 -4.89335 128.56318 35859 ft 497 kts 165°
2026-05-04 21:14 -4.95969 128.58297 35861 ft 497 kts 165°
2026-05-04 21:15 -5.02608 128.60279 35861 ft 497 kts 165°
2026-05-04 21:15 -5.09202 128.62247 35864 ft 498 kts 165°
2026-05-04 21:16 -5.15846 128.64232 35862 ft 498 kts 165°
2026-05-04 21:16 -5.22494 128.66217 35862 ft 498 kts 165°
2026-05-04 21:17 -5.29150 128.68206 35863 ft 499 kts 165°
2026-05-04 21:17 -5.35809 128.70196 35861 ft 499 kts 165°
2026-05-04 21:18 -5.42473 128.72188 35865 ft 499 kts 165°
2026-05-04 21:18 -5.49096 128.74168 35863 ft 500 kts 165°
2026-05-04 21:19 -5.55761 128.76162 35868 ft 500 kts 165°
2026-05-04 21:19 -5.62446 128.78161 35872 ft 500 kts 165°
2026-05-04 21:20 -5.69121 128.80158 35869 ft 500 kts 165°
2026-05-04 21:20 -5.75807 128.82159 35867 ft 501 kts 165°
2026-05-04 21:21 -5.82436 128.84143 35866 ft 501 kts 165°
2026-05-04 21:21 -5.89141 128.86151 35872 ft 501 kts 165°
2026-05-04 21:22 -5.95834 128.88156 35876 ft 501 kts 165°
2026-05-04 21:22 -6.02479 128.90146 35870 ft 502 kts 165°
2026-05-04 21:23 -6.09185 128.92155 35874 ft 502 kts 165°
2026-05-04 21:23 -6.15883 128.94163 35871 ft 502 kts 165°
2026-05-04 21:24 -6.22550 128.96161 35878 ft 502 kts 165°
2026-05-04 21:24 -6.29258 128.98173 35873 ft 502 kts 165°
2026-05-04 21:25 -6.35949 129.00179 35875 ft 502 kts 165°
2026-05-04 21:25 -6.42654 129.02191 35881 ft 502 kts 165°
2026-05-04 21:26 -6.49339 129.04198 35878 ft 502 kts 165°
2026-05-04 21:26 -6.56049 129.06212 35876 ft 502 kts 166°
2026-05-04 21:27 -6.62703 129.08210 35881 ft 502 kts 165°
2026-05-04 21:27 -6.69392 129.10219 35880 ft 502 kts 166°
2026-05-04 21:28 -6.76052 129.12220 35881 ft 501 kts 166°
2026-05-04 21:28 -6.81656 129.13904 35880 ft 502 kts 166°
2026-05-04 21:29 -6.88344 129.15915 35882 ft 502 kts 166°
2026-05-04 21:29 -6.96129 129.18257 35880 ft 502 kts 166°
2026-05-04 21:30 -7.01733 129.19943 35879 ft 501 kts 166°
2026-05-04 21:30 -7.09486 129.22277 35884 ft 500 kts 166°
2026-05-04 21:31 -7.18371 129.24951 35882 ft 500 kts 166°
2026-05-04 21:32 -7.25023 129.26953 35880 ft 499 kts 166°
2026-05-04 21:32 -7.31690 129.28960 35887 ft 499 kts 166°
2026-05-04 21:33 -7.38338 129.30963 35887 ft 499 kts 166°
2026-05-04 21:33 -7.44981 129.32967 35885 ft 498 kts 167°
2026-05-04 21:34 -7.51628 129.34972 35890 ft 498 kts 166°
2026-05-04 21:34 -7.58239 129.36965 35894 ft 498 kts 167°
2026-05-04 21:35 -7.64879 129.38966 35884 ft 498 kts 167°
2026-05-04 21:35 -7.71542 129.40977 35890 ft 498 kts 167°
2026-05-04 21:36 -7.78179 129.42981 35891 ft 498 kts 167°
2026-05-04 21:36 -7.84786 129.44976 35894 ft 498 kts 167°
2026-05-04 21:37 -7.91431 129.46985 35894 ft 498 kts 167°
2026-05-04 21:37 -7.98083 129.48994 35896 ft 498 kts 167°
2026-05-04 21:38 -8.04721 129.50999 35898 ft 498 kts 167°
2026-05-04 21:38 -8.11359 129.53007 35900 ft 498 kts 167°
2026-05-04 21:39 -8.18006 129.55016 35896 ft 498 kts 167°
2026-05-04 21:39 -8.24603 129.57014 35901 ft 498 kts 167°
2026-05-04 21:40 -8.31249 129.59027 35904 ft 498 kts 167°
2026-05-04 21:40 -8.37894 129.61042 35906 ft 498 kts 167°
2026-05-04 21:41 -8.44535 129.63055 35901 ft 499 kts 167°
2026-05-04 21:41 -8.51208 129.65077 35897 ft 499 kts 167°
2026-05-04 21:42 -8.57826 129.67132 35898 ft 501 kts 165°
2026-05-04 21:42 -8.64362 129.69602 35904 ft 502 kts 162°
2026-05-04 21:43 -8.70888 129.72182 35900 ft 502 kts 162°
2026-05-04 21:43 -8.77366 129.74679 35902 ft 502 kts 163°
2026-05-04 21:44 -8.83914 129.77159 35897 ft 502 kts 163°
2026-05-04 21:44 -8.90465 129.79629 35906 ft 502 kts 163°
2026-05-04 21:45 -8.97012 129.82100 35905 ft 502 kts 163°
2026-05-04 21:45 -9.03529 129.84563 35904 ft 502 kts 163°
2026-05-04 21:46 -9.10088 129.87043 35902 ft 502 kts 163°
2026-05-04 21:46 -9.16638 129.89522 35902 ft 502 kts 163°
2026-05-04 21:47 -9.23198 129.92005 35907 ft 502 kts 163°
2026-05-04 21:47 -9.29746 129.94482 35906 ft 502 kts 163°
2026-05-04 21:48 -9.36312 129.96966 36064 ft 504 kts 163°
2026-05-04 21:48 -9.39553 129.98194 36335 ft 503 kts 163°
2026-05-04 21:48 -9.42834 129.99438 36592 ft 503 kts 163°
2026-05-04 21:48 -9.46103 130.00680 36849 ft 503 kts 163°
2026-05-04 21:49 -9.49380 130.01926 37089 ft 503 kts 163°
2026-05-04 21:49 -9.52663 130.03175 37325 ft 503 kts 163°
2026-05-04 21:49 -9.55926 130.04417 37582 ft 502 kts 163°
2026-05-04 21:49 -9.59210 130.05667 37833 ft 502 kts 163°
2026-05-04 21:50 -9.62477 130.06911 38076 ft 502 kts 163°
2026-05-04 21:50 -9.65746 130.08155 38299 ft 502 kts 163°
2026-05-04 21:50 -9.69016 130.09400 38511 ft 502 kts 163°
2026-05-04 21:50 -9.72291 130.10647 38718 ft 501 kts 163°
2026-05-04 21:51 -9.75504 130.11870 38880 ft 501 kts 163°
2026-05-04 21:51 -9.82040 130.14356 38919 ft 499 kts 163°
2026-05-04 21:52 -9.88541 130.16830 38919 ft 498 kts 163°
2026-05-04 21:52 -9.95054 130.19306 38918 ft 498 kts 163°
2026-05-04 21:53 -10.01496 130.21756 38921 ft 498 kts 163°
2026-05-04 21:53 -10.07991 130.24229 38921 ft 498 kts 163°
2026-05-04 21:54 -10.14482 130.26700 38925 ft 498 kts 163°
2026-05-04 21:54 -10.20971 130.29171 38926 ft 498 kts 163°
2026-05-04 21:55 -10.27467 130.31646 38924 ft 498 kts 163°
2026-05-04 21:55 -10.33958 130.34120 38926 ft 498 kts 163°
2026-05-04 21:56 -10.40405 130.36579 38925 ft 498 kts 163°
2026-05-04 21:56 -10.46881 130.39051 38927 ft 498 kts 163°
2026-05-04 21:57 -10.53371 130.41529 38933 ft 498 kts 163°
2026-05-04 21:57 -10.59858 130.44005 38932 ft 498 kts 163°
2026-05-04 21:58 -10.66351 130.46485 38933 ft 497 kts 163°
2026-05-04 21:58 -10.72796 130.48949 38931 ft 497 kts 163°
2026-05-04 21:59 -10.79305 130.51438 38935 ft 496 kts 163°
2026-05-04 21:59 -10.85717 130.53891 38934 ft 496 kts 163°
2026-05-04 22:00 -10.92180 130.56365 38937 ft 496 kts 163°
2026-05-04 22:00 -10.98649 130.58841 38937 ft 495 kts 163°
2026-05-04 22:01 -11.05093 130.61309 38939 ft 495 kts 163°
2026-05-04 22:01 -11.11501 130.63764 38938 ft 495 kts 163°
2026-05-04 22:02 -11.17942 130.66234 38938 ft 494 kts 163°
2026-05-04 22:02 -11.24387 130.68708 38941 ft 494 kts 163°
2026-05-04 22:03 -11.30822 130.71178 38945 ft 494 kts 163°
2026-05-04 22:03 -11.37272 130.73654 38951 ft 494 kts 163°
2026-05-04 22:04 -11.43667 130.76112 38944 ft 494 kts 164°
2026-05-04 22:04 -11.50116 130.78589 38951 ft 494 kts 164°
2026-05-04 22:05 -11.56555 130.81066 38952 ft 493 kts 164°
2026-05-04 22:05 -11.62949 130.83527 38948 ft 493 kts 164°
2026-05-04 22:06 -11.69372 130.86001 38952 ft 494 kts 164°
2026-05-04 22:06 -11.75816 130.88483 38953 ft 494 kts 164°
2026-05-04 22:07 -11.82243 130.90960 38951 ft 494 kts 164°
2026-05-04 22:07 -11.88680 130.93442 38957 ft 494 kts 164°
2026-05-04 22:08 -11.95115 130.95924 38948 ft 494 kts 164°
2026-05-04 22:08 -12.01506 130.98390 38949 ft 495 kts 164°
2026-05-04 22:09 -12.07946 131.00876 38954 ft 495 kts 164°
2026-05-04 22:09 -12.14391 131.03365 38954 ft 495 kts 164°
2026-05-04 22:10 -12.20835 131.05856 38962 ft 495 kts 164°
2026-05-04 22:10 -12.27273 131.08345 38961 ft 495 kts 164°
2026-05-04 22:11 -12.33725 131.10841 38959 ft 495 kts 164°
2026-05-04 22:11 -12.40161 131.13333 38960 ft 495 kts 164°
2026-05-04 22:12 -12.46609 131.15830 38964 ft 495 kts 164°
2026-05-04 22:12 -12.53057 131.18328 38963 ft 495 kts 165°
2026-05-04 22:13 -12.59465 131.20814 38965 ft 495 kts 165°
2026-05-04 22:13 -12.65901 131.23311 38964 ft 495 kts 165°
2026-05-04 22:14 -12.72322 131.25897 38961 ft 496 kts 163°
2026-05-04 22:14 -12.78696 131.28635 38968 ft 496 kts 162°
2026-05-04 22:15 -12.83988 131.30910 38969 ft 496 kts 162°
2026-05-04 22:15 -12.90362 131.33623 38970 ft 496 kts 163°
2026-05-04 22:16 -12.96742 131.36324 38975 ft 496 kts 163°
2026-05-04 22:16 -13.03090 131.39010 38972 ft 497 kts 163°
2026-05-04 22:17 -13.09478 131.41716 38969 ft 497 kts 163°
2026-05-04 22:17 -13.15881 131.44431 38981 ft 497 kts 163°
2026-05-04 22:18 -13.22271 131.47142 38976 ft 497 kts 163°
2026-05-04 22:18 -13.28672 131.49858 38981 ft 498 kts 163°
2026-05-04 22:19 -13.35088 131.52583 38985 ft 498 kts 163°
2026-05-04 22:19 -13.41453 131.55288 38983 ft 499 kts 163°
2026-05-04 22:20 -13.47878 131.58019 38979 ft 499 kts 163°
2026-05-04 22:20 -13.54309 131.60754 38981 ft 500 kts 163°
2026-05-04 22:21 -13.60742 131.63493 38985 ft 500 kts 163°
2026-05-04 22:21 -13.67187 131.66237 38991 ft 500 kts 163°
2026-05-04 22:22 -13.73578 131.68960 38992 ft 501 kts 163°
2026-05-04 22:22 -13.80014 131.71704 38995 ft 501 kts 163°
2026-05-04 22:23 -13.86466 131.74458 38993 ft 501 kts 163°
2026-05-04 22:23 -13.92920 131.77214 38997 ft 502 kts 164°
2026-05-04 22:24 -13.99371 131.79971 39000 ft 502 kts 164°
2026-05-04 22:24 -14.05828 131.82730 39001 ft 502 kts 164°
2026-05-04 22:25 -14.12282 131.85490 39002 ft 502 kts 164°
2026-05-04 22:25 -14.18710 131.88241 39003 ft 503 kts 164°
2026-05-04 22:26 -14.25169 131.91008 39004 ft 503 kts 164°
2026-05-04 22:26 -14.31645 131.93782 39009 ft 503 kts 164°
2026-05-04 22:27 -14.38111 131.96554 39009 ft 504 kts 164°
2026-05-04 22:27 -14.44592 131.99335 39008 ft 504 kts 164°
2026-05-04 22:28 -14.51033 132.02103 39010 ft 504 kts 164°
2026-05-04 22:28 -14.57519 132.04890 39013 ft 505 kts 164°
2026-05-04 22:29 -14.64008 132.07680 39014 ft 505 kts 164°
2026-05-04 22:29 -14.70501 132.10473 39018 ft 506 kts 164°
2026-05-04 22:30 -14.77012 132.13276 39016 ft 506 kts 164°
2026-05-04 22:30 -14.83516 132.16079 39017 ft 507 kts 164°
2026-05-04 22:31 -14.90019 132.18888 39021 ft 507 kts 164°
2026-05-04 22:31 -14.96499 132.21690 39023 ft 507 kts 164°
2026-05-04 22:32 -15.03031 132.24511 39027 ft 507 kts 164°
2026-05-04 22:32 -15.09548 132.27325 39027 ft 508 kts 164°
2026-05-04 22:33 -15.16048 132.30134 39033 ft 508 kts 164°
2026-05-04 22:33 -15.22569 132.32954 39032 ft 508 kts 164°
2026-05-04 22:34 -15.29107 132.35783 39035 ft 508 kts 164°
2026-05-04 22:34 -15.35646 132.38614 39035 ft 509 kts 164°
2026-05-04 22:35 -15.42180 132.41446 39035 ft 509 kts 164°
2026-05-04 22:35 -15.48672 132.44261 39042 ft 510 kts 164°
2026-05-04 22:36 -15.55243 132.47112 39040 ft 510 kts 164°
2026-05-04 22:36 -15.61794 132.49957 39043 ft 510 kts 164°
2026-05-04 22:37 -15.68319 132.52792 39048 ft 511 kts 164°
2026-05-04 22:37 -15.74890 132.55649 39048 ft 511 kts 164°
2026-05-04 22:38 -15.81455 132.58506 39052 ft 512 kts 164°
2026-05-04 22:38 -15.88047 132.61376 39053 ft 512 kts 164°
2026-05-04 22:39 -15.94623 132.64238 39055 ft 513 kts 164°
2026-05-04 22:39 -16.01209 132.67110 39057 ft 513 kts 164°
2026-05-04 22:40 -16.07772 132.69971 39060 ft 514 kts 164°
2026-05-04 22:40 -16.14367 132.72849 39066 ft 514 kts 164°
2026-05-04 22:41 -16.20977 132.75736 39070 ft 515 kts 164°
2026-05-04 22:41 -16.27585 132.78625 39074 ft 515 kts 164°
2026-05-04 22:42 -16.34210 132.81521 39075 ft 516 kts 164°
2026-05-04 22:42 -16.40762 132.84395 39076 ft 510 kts 166°
2026-05-04 22:43 -16.47285 132.87256 39077 ft 507 kts 166°
2026-05-04 22:43 -16.53794 132.90107 39080 ft 507 kts 166°
2026-05-04 22:44 -16.60303 132.92961 39085 ft 508 kts 166°
2026-05-04 22:44 -16.66786 132.95809 39091 ft 508 kts 166°
2026-05-04 22:45 -16.73311 132.98676 39092 ft 508 kts 166°
2026-05-04 22:45 -16.83082 133.02976 39099 ft 508 kts 166°
2026-05-04 22:46 -16.89597 133.05845 39093 ft 508 kts 166°
2026-05-04 22:46 -16.96106 133.08713 39096 ft 508 kts 166°
2026-05-04 22:47 -17.02587 133.11572 39100 ft 508 kts 166°
2026-05-04 22:47 -17.09098 133.14446 39103 ft 508 kts 166°
2026-05-04 22:48 -17.15625 133.17328 39111 ft 508 kts 166°
2026-05-04 22:48 -17.22144 133.20209 39108 ft 508 kts 166°
2026-05-04 22:49 -17.28665 133.23093 39108 ft 508 kts 166°
2026-05-04 22:49 -17.35161 133.25970 39112 ft 508 kts 166°
2026-05-04 22:50 -17.41678 133.28858 39112 ft 508 kts 166°
2026-05-04 22:50 -17.48205 133.31752 39114 ft 508 kts 166°
2026-05-04 22:51 -17.54728 133.34646 39117 ft 508 kts 166°
2026-05-04 22:51 -17.61205 133.37522 39117 ft 508 kts 166°
2026-05-04 22:52 -17.67719 133.40416 39124 ft 508 kts 166°
2026-05-04 22:52 -17.74235 133.43313 39124 ft 508 kts 167°
2026-05-04 22:53 -17.80752 133.46213 39126 ft 508 kts 167°
2026-05-04 22:53 -17.87276 133.49119 39124 ft 508 kts 167°
2026-05-04 22:54 -17.93741 133.52001 39126 ft 508 kts 167°
2026-05-04 22:54 -18.00250 133.54906 39127 ft 507 kts 167°
2026-05-04 22:55 -18.06754 133.57812 39120 ft 507 kts 167°
2026-05-04 22:55 -18.13256 133.60719 39129 ft 507 kts 167°
2026-05-04 22:56 -18.19707 133.63602 39126 ft 507 kts 167°
2026-05-04 22:56 -18.26195 133.66504 39136 ft 506 kts 167°
2026-05-04 22:57 -18.32680 133.69409 39132 ft 506 kts 167°
2026-05-04 22:57 -18.39170 133.72320 39137 ft 506 kts 167°
2026-05-04 22:58 -18.45599 133.75208 39139 ft 506 kts 167°
2026-05-04 22:58 -18.52081 133.78125 39140 ft 506 kts 167°
2026-05-04 22:59 -18.58587 133.81045 39142 ft 507 kts 167°
2026-05-04 22:59 -18.65042 133.83947 39133 ft 507 kts 167°
2026-05-04 23:00 -18.71537 133.86872 39143 ft 507 kts 167°
2026-05-04 23:00 -18.78039 133.89803 39139 ft 508 kts 167°
2026-05-04 23:01 -18.84541 133.92738 39142 ft 509 kts 167°
2026-05-04 23:01 -18.91053 133.95680 39144 ft 509 kts 167°
2026-05-04 23:02 -18.97539 133.98611 39147 ft 510 kts 167°
2026-05-04 23:02 -19.04071 134.01567 39147 ft 510 kts 167°
2026-05-04 23:03 -19.09501 134.04025 39146 ft 511 kts 167°
2026-05-04 23:03 -19.16049 134.06994 39151 ft 511 kts 167°
2026-05-04 23:04 -19.22596 134.09966 39151 ft 512 kts 167°
2026-05-04 23:04 -19.29158 134.12948 39155 ft 513 kts 167°
2026-05-04 23:05 -19.35725 134.15929 39152 ft 513 kts 167°
2026-05-04 23:05 -19.42257 134.18897 39158 ft 514 kts 167°
2026-05-04 23:06 -19.48832 134.21889 39160 ft 515 kts 167°
2026-05-04 23:06 -19.55424 134.24893 39158 ft 515 kts 167°
2026-05-04 23:07 -19.62014 134.27900 39157 ft 516 kts 167°
2026-05-04 23:07 -19.68627 134.30920 39158 ft 516 kts 167°
2026-05-04 23:08 -19.75238 134.33940 39162 ft 517 kts 167°
2026-05-04 23:08 -19.81854 134.36965 39161 ft 518 kts 167°
2026-05-04 23:09 -19.88431 134.39976 39157 ft 518 kts 167°
2026-05-04 23:09 -19.95052 134.43009 39172 ft 518 kts 167°
2026-05-04 23:10 -20.01680 134.46047 39164 ft 519 kts 167°
2026-05-04 23:10 -20.08312 134.49087 39175 ft 519 kts 167°
2026-05-04 23:11 -20.14950 134.52134 39169 ft 519 kts 167°
2026-05-04 23:11 -20.21557 134.55173 39173 ft 520 kts 167°
2026-05-04 23:12 -20.28193 134.58230 39172 ft 520 kts 167°
2026-05-04 23:12 -20.34843 134.61291 39178 ft 520 kts 167°
2026-05-04 23:13 -20.41498 134.64358 39345 ft 521 kts 167°
2026-05-04 23:13 -20.44826 134.65895 39551 ft 521 kts 167°
2026-05-04 23:13 -20.48144 134.67429 39755 ft 520 kts 167°
2026-05-04 23:14 -20.51481 134.68974 39952 ft 520 kts 167°
2026-05-04 23:14 -20.54755 134.70490 40153 ft 519 kts 167°
2026-05-04 23:14 -20.58068 134.72025 40359 ft 519 kts 167°
2026-05-04 23:14 -20.61380 134.73559 40532 ft 519 kts 167°
2026-05-04 23:15 -20.64690 134.75093 40721 ft 518 kts 167°
2026-05-04 23:15 -20.67997 134.76625 40907 ft 518 kts 167°
2026-05-04 23:15 -20.71308 134.78161 41082 ft 518 kts 167°
2026-05-04 23:15 -20.74615 134.79694 41185 ft 518 kts 167°
2026-05-04 23:16 -20.81241 134.82769 41199 ft 517 kts 167°
2026-05-04 23:16 -20.87797 134.85815 41196 ft 517 kts 167°
2026-05-04 23:17 -20.94409 134.88887 41194 ft 517 kts 167°
2026-05-04 23:17 -21.01019 134.91960 41201 ft 518 kts 166°
2026-05-04 23:18 -21.07595 134.95020 41203 ft 518 kts 166°
2026-05-04 23:18 -21.14205 134.98099 41206 ft 518 kts 166°
2026-05-04 23:19 -21.20814 135.01182 41215 ft 519 kts 166°
2026-05-04 23:19 -21.27444 135.04278 41215 ft 519 kts 166°
2026-05-04 23:20 -21.34065 135.07372 41216 ft 519 kts 166°
2026-05-04 23:20 -21.40688 135.10469 41225 ft 519 kts 166°
2026-05-04 23:21 -21.47289 135.13643 41223 ft 522 kts 163°
2026-05-04 23:21 -21.53766 135.17120 41226 ft 524 kts 162°
2026-05-04 23:22 -21.60269 135.20667 41228 ft 523 kts 162°
2026-05-04 23:22 -21.66780 135.24167 41230 ft 523 kts 163°
2026-05-04 23:23 -21.73298 135.27640 41230 ft 523 kts 163°
2026-05-04 23:23 -21.79825 135.31111 41232 ft 523 kts 163°
2026-05-04 23:24 -21.86357 135.34592 41233 ft 523 kts 163°
2026-05-04 23:24 -21.92879 135.38074 41231 ft 523 kts 163°
2026-05-04 23:25 -21.99355 135.41536 41234 ft 523 kts 162°
2026-05-04 23:25 -22.05892 135.45034 41240 ft 523 kts 162°
2026-05-04 23:26 -22.12415 135.48528 41244 ft 523 kts 162°
2026-05-04 23:26 -22.18936 135.52024 41240 ft 523 kts 162°
2026-05-04 23:27 -22.25462 135.55527 41248 ft 523 kts 162°
2026-05-04 23:27 -22.31944 135.59008 41253 ft 523 kts 162°
2026-05-04 23:28 -22.38475 135.62521 41255 ft 523 kts 162°
2026-05-04 23:28 -22.44996 135.66031 41258 ft 523 kts 162°
2026-05-04 23:29 -22.51516 135.69545 41255 ft 523 kts 162°
2026-05-04 23:29 -22.58005 135.73046 41261 ft 523 kts 162°
2026-05-04 23:30 -22.64527 135.76567 41261 ft 523 kts 162°
2026-05-04 23:30 -22.71048 135.80091 41264 ft 524 kts 162°
2026-05-04 23:31 -22.77572 135.83623 41268 ft 523 kts 162°
2026-05-04 23:31 -22.84097 135.87159 41268 ft 523 kts 162°
2026-05-04 23:32 -22.90567 135.90669 41270 ft 523 kts 162°
2026-05-04 23:32 -22.97092 135.94212 41270 ft 523 kts 161°
2026-05-04 23:33 -23.03605 135.97753 41267 ft 523 kts 161°
2026-05-04 23:33 -23.10131 136.01304 41273 ft 523 kts 161°
2026-05-04 23:34 -23.16604 136.04830 41272 ft 523 kts 161°
2026-05-04 23:34 -23.23124 136.08387 41274 ft 524 kts 161°
2026-05-04 23:35 -23.29644 136.11947 41274 ft 524 kts 161°
2026-05-04 23:35 -23.36160 136.15509 41272 ft 524 kts 161°
2026-05-04 23:36 -23.42670 136.19071 41271 ft 524 kts 161°
2026-05-04 23:36 -23.49184 136.22638 41277 ft 524 kts 161°
2026-05-04 23:37 -23.55657 136.26187 41267 ft 524 kts 161°
2026-05-04 23:37 -23.62175 136.29765 41269 ft 524 kts 161°
2026-05-04 23:38 -23.68687 136.33343 41269 ft 524 kts 161°
2026-05-04 23:38 -23.75157 136.36903 41274 ft 524 kts 161°
2026-05-04 23:39 -23.81672 136.40492 41269 ft 524 kts 161°
2026-05-04 23:39 -23.88178 136.44079 41271 ft 524 kts 161°
2026-05-04 23:40 -23.94689 136.47674 41269 ft 524 kts 161°
2026-05-04 23:40 -24.01205 136.51275 41270 ft 524 kts 161°
2026-05-04 23:41 -24.07717 136.54878 41270 ft 525 kts 161°
2026-05-04 23:41 -24.14242 136.58493 41272 ft 525 kts 161°
2026-05-04 23:42 -24.20723 136.62088 41268 ft 525 kts 161°
2026-05-04 23:42 -24.27248 136.65712 41268 ft 525 kts 161°
2026-05-04 23:43 -24.33761 136.69333 41268 ft 525 kts 161°
2026-05-04 23:43 -24.40282 136.72961 41270 ft 525 kts 161°
2026-05-04 23:44 -24.46818 136.76602 41269 ft 526 kts 161°
2026-05-04 23:44 -24.53335 136.80238 41270 ft 526 kts 161°
2026-05-04 23:45 -24.59829 136.83866 41272 ft 526 kts 160°
2026-05-04 23:45 -24.66360 136.87518 41274 ft 526 kts 160°
2026-05-04 23:46 -24.72899 136.91178 41271 ft 526 kts 160°
2026-05-04 23:46 -24.79440 136.94845 41272 ft 527 kts 160°
2026-05-04 23:47 -24.85923 136.98482 41273 ft 527 kts 160°
2026-05-04 23:47 -24.92462 137.02156 41275 ft 527 kts 160°
2026-05-04 23:48 -24.98992 137.05830 41272 ft 527 kts 160°
2026-05-04 23:48 -25.04412 137.08899 41262 ft 528 kts 159°
2026-05-04 23:49 -25.10465 137.13656 41281 ft 539 kts 147°
2026-05-04 23:49 -25.16184 137.19000 41274 ft 538 kts 145°
2026-05-04 23:50 -25.21838 137.24430 41279 ft 538 kts 145°
2026-05-04 23:50 -25.27465 137.29826 41283 ft 538 kts 145°
2026-05-04 23:51 -25.33128 137.35235 41272 ft 538 kts 145°
2026-05-04 23:51 -25.38805 137.40653 41272 ft 538 kts 145°
2026-05-04 23:52 -25.44473 137.46070 41279 ft 538 kts 145°
2026-05-04 23:52 -25.50108 137.51463 41279 ft 538 kts 145°
2026-05-04 23:53 -25.55776 137.56895 41275 ft 539 kts 145°
2026-05-04 23:53 -25.61463 137.62354 41276 ft 539 kts 145°
2026-05-04 23:54 -25.67133 137.67802 41280 ft 539 kts 145°
2026-05-04 23:54 -25.72765 137.73221 41278 ft 539 kts 145°
2026-05-04 23:55 -25.78443 137.78692 41275 ft 539 kts 144°
2026-05-04 23:56 -25.86949 137.86903 41279 ft 539 kts 144°
2026-05-04 23:56 -25.92577 137.92344 41280 ft 539 kts 144°
2026-05-04 23:57 -25.98251 137.97837 41277 ft 539 kts 144°
2026-05-04 23:57 -26.03887 138.03362 41278 ft 540 kts 143°
2026-05-04 23:58 -26.09415 138.09029 41281 ft 541 kts 142°
2026-05-04 23:58 -26.14935 138.14724 41282 ft 541 kts 142°
2026-05-04 23:59 -26.20430 138.20365 41280 ft 541 kts 143°
2026-05-04 23:59 -26.25974 138.26041 41285 ft 540 kts 143°
2026-05-05 00:00 -26.31512 138.31715 41284 ft 540 kts 143°
2026-05-05 00:00 -26.37053 138.37399 41284 ft 540 kts 142°
2026-05-05 00:01 -26.42551 138.43048 41288 ft 540 kts 142°
2026-05-05 00:01 -26.48081 138.48738 41284 ft 540 kts 142°
2026-05-05 00:02 -26.53625 138.54450 41272 ft 540 kts 142°
2026-05-05 00:02 -26.59148 138.60148 41274 ft 541 kts 142°
2026-05-05 00:03 -26.64669 138.65852 41281 ft 541 kts 142°
2026-05-05 00:03 -26.70163 138.71536 41280 ft 540 kts 142°
2026-05-05 00:04 -26.75684 138.77256 41275 ft 540 kts 142°
2026-05-05 00:04 -26.81197 138.82975 41285 ft 541 kts 142°
2026-05-05 00:05 -26.86716 138.88710 41282 ft 541 kts 142°
2026-05-05 00:05 -26.92229 138.94446 41280 ft 540 kts 142°
2026-05-05 00:06 -26.97733 139.00182 41281 ft 540 kts 142°
2026-05-05 00:06 -27.03206 139.05892 41281 ft 540 kts 142°
2026-05-05 00:07 -27.08710 139.11642 41280 ft 540 kts 142°
2026-05-05 00:07 -27.14209 139.17396 41281 ft 540 kts 142°
2026-05-05 00:08 -27.19709 139.23159 41279 ft 540 kts 142°
2026-05-05 00:08 -27.25185 139.28904 41281 ft 540 kts 142°
2026-05-05 00:09 -27.30676 139.34674 41279 ft 540 kts 142°
2026-05-05 00:09 -27.36170 139.40454 41277 ft 540 kts 141°
2026-05-05 00:10 -27.41660 139.46238 41278 ft 540 kts 141°
2026-05-05 00:10 -27.47164 139.52046 41280 ft 540 kts 141°
2026-05-05 00:11 -27.52618 139.57809 41278 ft 541 kts 141°
2026-05-05 00:11 -27.58097 139.63605 41278 ft 541 kts 141°
2026-05-05 00:12 -27.63582 139.69417 41282 ft 541 kts 141°
2026-05-05 00:12 -27.69057 139.75229 41281 ft 541 kts 141°
2026-05-05 00:13 -27.74535 139.81051 41278 ft 541 kts 141°
2026-05-05 00:13 -27.80031 139.86900 41277 ft 541 kts 141°
2026-05-05 00:14 -27.85506 139.92736 41276 ft 541 kts 141°
2026-05-05 00:14 -27.90984 139.98585 41277 ft 541 kts 141°
2026-05-05 00:15 -27.96460 140.04439 41277 ft 541 kts 141°
2026-05-05 00:15 -28.01900 140.10263 41277 ft 541 kts 141°
2026-05-05 00:16 -28.07369 140.16128 41276 ft 541 kts 141°
2026-05-05 00:16 -28.12595 140.22297 41280 ft 545 kts 135°
2026-05-05 00:17 -28.17522 140.28832 41272 ft 544 kts 134°
2026-05-05 00:17 -28.22355 140.35369 41272 ft 544 kts 133°
2026-05-05 00:18 -28.27210 140.41948 41265 ft 544 kts 133°
2026-05-05 00:18 -28.32068 140.48523 41270 ft 544 kts 134°
2026-05-05 00:19 -28.36942 140.55120 41273 ft 544 kts 133°
2026-05-05 00:19 -28.41801 140.61704 41276 ft 544 kts 133°
2026-05-05 00:20 -28.46631 140.68258 41269 ft 544 kts 133°
2026-05-05 00:20 -28.51488 140.74867 41272 ft 544 kts 133°
2026-05-05 00:21 -28.56319 140.81451 41270 ft 544 kts 133°
2026-05-05 00:21 -28.61169 140.88070 41266 ft 544 kts 133°
2026-05-05 00:22 -28.66022 140.94698 41269 ft 544 kts 133°
2026-05-05 00:22 -28.70862 141.01318 41272 ft 544 kts 133°
2026-05-05 00:23 -28.75707 141.07961 41266 ft 544 kts 133°
2026-05-05 00:23 -28.80544 141.14606 41266 ft 544 kts 133°
2026-05-05 00:24 -28.85384 141.21263 41269 ft 544 kts 133°
2026-05-05 00:24 -28.90214 141.27916 41267 ft 544 kts 133°
2026-05-05 00:25 -28.95018 141.34543 41266 ft 544 kts 133°
2026-05-05 00:25 -28.99852 141.41224 41267 ft 545 kts 133°
2026-05-05 00:26 -29.04683 141.47911 41264 ft 545 kts 133°
2026-05-05 00:26 -29.09504 141.54597 41262 ft 545 kts 133°
2026-05-05 00:27 -29.14316 141.61280 41265 ft 545 kts 133°
2026-05-05 00:27 -29.19146 141.67999 41264 ft 545 kts 133°
2026-05-05 00:28 -29.23929 141.74662 41263 ft 545 kts 133°
2026-05-05 00:28 -29.28751 141.81392 41270 ft 545 kts 133°
2026-05-05 00:29 -29.33565 141.88122 41253 ft 545 kts 133°
2026-05-05 00:29 -29.38367 141.94847 41258 ft 545 kts 133°
2026-05-05 00:30 -29.43135 142.01533 41264 ft 545 kts 133°
2026-05-05 00:30 -29.47936 142.08278 41270 ft 545 kts 132°
2026-05-05 00:31 -29.52731 142.15025 41266 ft 545 kts 132°
2026-05-05 00:31 -29.57517 142.21771 41269 ft 545 kts 132°
2026-05-05 00:32 -29.62299 142.28523 41271 ft 545 kts 132°
2026-05-05 00:32 -29.67082 142.35287 41266 ft 545 kts 132°
2026-05-05 00:33 -29.71838 142.42022 41269 ft 545 kts 132°
2026-05-05 00:33 -29.76622 142.48811 41270 ft 545 kts 132°
2026-05-05 00:34 -29.81403 142.55606 41262 ft 545 kts 132°
2026-05-05 00:34 -29.86171 142.62394 41267 ft 545 kts 132°
2026-05-05 00:35 -29.90913 142.69158 41267 ft 545 kts 132°
2026-05-05 00:35 -29.95700 142.75964 41261 ft 545 kts 132°
2026-05-05 00:36 -29.99685 142.81607 41261 ft 545 kts 132°
2026-05-05 00:36 -30.05252 142.89509 41265 ft 545 kts 132°
2026-05-05 00:37 -30.09255 142.95209 41260 ft 546 kts 132°
2026-05-05 00:37 -30.14028 143.02021 41261 ft 546 kts 132°
2026-05-05 00:38 -30.18773 143.08803 41261 ft 546 kts 132°
2026-05-05 00:38 -30.23547 143.15638 41259 ft 546 kts 132°
2026-05-05 00:39 -30.28315 143.22477 41262 ft 546 kts 132°
2026-05-05 00:39 -30.33089 143.29337 41260 ft 546 kts 132°
2026-05-05 00:40 -30.37859 143.36199 41262 ft 546 kts 132°
2026-05-05 00:40 -30.42598 143.43031 41263 ft 547 kts 132°
2026-05-05 00:41 -30.47356 143.49901 41265 ft 547 kts 132°
2026-05-05 00:41 -30.52132 143.56811 41263 ft 547 kts 132°
2026-05-05 00:42 -30.56887 143.63703 41267 ft 547 kts 132°
2026-05-05 00:42 -30.61616 143.70568 41264 ft 547 kts 132°
2026-05-05 00:43 -30.66372 143.77485 41264 ft 547 kts 132°
2026-05-05 00:43 -30.71128 143.84412 41258 ft 548 kts 132°
2026-05-05 00:44 -30.75850 143.91303 41261 ft 548 kts 132°
2026-05-05 00:44 -30.80602 143.98251 41263 ft 548 kts 131°
2026-05-05 00:45 -30.85344 144.05195 41261 ft 548 kts 131°
2026-05-05 00:45 -30.90090 144.12157 41262 ft 548 kts 131°
2026-05-05 00:46 -30.94801 144.19083 41259 ft 548 kts 131°
2026-05-05 00:46 -30.99562 144.26093 41263 ft 548 kts 131°
2026-05-05 00:47 -31.04272 144.33040 41263 ft 549 kts 131°
2026-05-05 00:47 -31.09005 144.40034 41263 ft 549 kts 131°
2026-05-05 00:48 -31.13734 144.47033 41260 ft 549 kts 131°
2026-05-05 00:48 -31.18460 144.54040 41259 ft 549 kts 131°
2026-05-05 00:49 -31.23152 144.61010 41261 ft 549 kts 131°
2026-05-05 00:49 -31.27876 144.68040 41261 ft 549 kts 131°
2026-05-05 00:50 -31.32596 144.75077 41255 ft 549 kts 131°
2026-05-05 00:50 -31.37311 144.82119 41245 ft 549 kts 131°
2026-05-05 00:51 -31.42021 144.89167 41264 ft 549 kts 131°
2026-05-05 00:51 -31.46695 144.96175 41252 ft 549 kts 131°
2026-05-05 00:52 -31.51400 145.03243 41248 ft 549 kts 131°
2026-05-05 00:52 -31.56100 145.10316 41248 ft 549 kts 131°
2026-05-05 00:53 -31.60798 145.17397 41248 ft 550 kts 131°
2026-05-05 00:53 -31.65483 145.24470 41246 ft 550 kts 131°
2026-05-05 00:54 -31.70153 145.31535 41250 ft 550 kts 131°
2026-05-05 00:54 -31.74842 145.38642 41249 ft 550 kts 131°
2026-05-05 00:55 -31.79530 145.45762 41252 ft 550 kts 131°
2026-05-05 00:55 -31.84193 145.52855 41251 ft 550 kts 131°
2026-05-05 00:56 -31.88881 145.59999 41247 ft 550 kts 131°
2026-05-05 00:56 -31.93512 145.67073 41247 ft 550 kts 131°
2026-05-05 00:57 -31.98182 145.74222 41249 ft 550 kts 131°
2026-05-05 00:57 -32.02847 145.81377 41249 ft 550 kts 131°
2026-05-05 00:58 -32.07519 145.88552 41245 ft 550 kts 131°
2026-05-05 00:58 -32.12171 145.95709 41245 ft 550 kts 131°
2026-05-05 00:59 -32.16790 146.02829 41247 ft 550 kts 130°
2026-05-05 00:59 -32.21445 146.10019 41249 ft 550 kts 130°
2026-05-05 01:00 -32.26085 146.17198 41244 ft 550 kts 130°
2026-05-05 01:00 -32.30728 146.24397 41245 ft 550 kts 130°
2026-05-05 01:01 -32.35349 146.31574 41247 ft 550 kts 130°
2026-05-05 01:01 -32.39985 146.38789 41248 ft 550 kts 130°
2026-05-05 01:02 -32.44616 146.46008 41249 ft 550 kts 130°
2026-05-05 01:02 -32.49235 146.53224 41244 ft 550 kts 130°
2026-05-05 01:03 -32.53862 146.60465 41242 ft 550 kts 130°
2026-05-05 01:03 -32.58484 146.67711 41245 ft 550 kts 130°
2026-05-05 01:04 -32.63071 146.74918 41243 ft 550 kts 130°
2026-05-05 01:04 -32.69999 146.85829 41243 ft 551 kts 130°
2026-05-05 01:05 -32.74601 146.93093 41246 ft 551 kts 130°
2026-05-05 01:05 -32.79202 147.00371 41246 ft 550 kts 130°
2026-05-05 01:06 -32.83804 147.07663 41246 ft 550 kts 130°
2026-05-05 01:06 -32.88397 147.14957 41245 ft 550 kts 130°
2026-05-05 01:07 -32.92954 147.22205 41241 ft 551 kts 130°
2026-05-05 01:07 -32.97542 147.29518 41242 ft 551 kts 130°
2026-05-05 01:08 -33.02126 147.36841 41241 ft 551 kts 130°
2026-05-05 01:08 -33.06697 147.44158 41243 ft 551 kts 130°
2026-05-05 01:09 -33.11273 147.51496 41242 ft 551 kts 130°
2026-05-05 01:09 -33.15847 147.58846 41242 ft 551 kts 130°
2026-05-05 01:10 -33.20412 147.66197 41242 ft 551 kts 130°
2026-05-05 01:10 -33.24943 147.73506 41241 ft 551 kts 130°
2026-05-05 01:11 -33.29500 147.80872 41241 ft 551 kts 130°
2026-05-05 01:11 -33.34060 147.88258 41246 ft 551 kts 130°
2026-05-05 01:12 -33.38879 147.95356 41239 ft 548 kts 136°
2026-05-05 01:12 -33.44034 148.02094 41242 ft 549 kts 137°
2026-05-05 01:13 -33.49217 148.08786 41245 ft 549 kts 137°
2026-05-05 01:13 -33.54401 148.15502 41244 ft 549 kts 137°
2026-05-05 01:14 -33.59583 148.22249 41242 ft 549 kts 137°
2026-05-05 01:14 -33.64756 148.29005 41243 ft 549 kts 137°
2026-05-05 01:15 -33.69287 148.34935 41240 ft 549 kts 137°
2026-05-05 01:15 -33.74425 148.41672 41240 ft 550 kts 137°
2026-05-05 01:16 -33.79596 148.48451 41237 ft 549 kts 137°
2026-05-05 01:16 -33.84796 148.55242 41236 ft 549 kts 137°
2026-05-05 01:17 -33.89961 148.62026 41236 ft 550 kts 137°
2026-05-05 01:17 -33.95082 148.68785 41232 ft 550 kts 137°
2026-05-05 01:18 -34.00251 148.75624 41234 ft 550 kts 137°
2026-05-05 01:18 -34.05402 148.82456 41232 ft 550 kts 137°
2026-05-05 01:19 -34.10547 148.89288 41228 ft 550 kts 137°
2026-05-05 01:19 -34.15654 148.96082 41227 ft 550 kts 137°
2026-05-05 01:20 -34.20806 149.02948 41224 ft 550 kts 137°
2026-05-05 01:20 -34.25081 149.08660 41225 ft 550 kts 137°
2026-05-05 01:21 -34.30225 149.15544 40937 ft 551 kts 137°
2026-05-05 01:21 -34.32790 149.18982 40649 ft 550 kts 137°
2026-05-05 01:21 -34.35354 149.22417 39958 ft 551 kts 137°
2026-05-05 01:22 -34.37939 149.25881 39274 ft 553 kts 137°
2026-05-05 01:22 -34.40458 149.29383 38503 ft 556 kts 131°
2026-05-05 01:22 -34.42514 149.33351 37784 ft 556 kts 118°
2026-05-05 01:22 -34.43900 149.37706 37100 ft 553 kts 106°
2026-05-05 01:23 -34.44728 149.42265 36413 ft 551 kts 100°
2026-05-05 01:23 -34.45322 149.46773 35696 ft 550 kts 98°
2026-05-05 01:23 -34.45836 149.51371 34909 ft 551 kts 97°
2026-05-05 01:23 -34.46328 149.55997 34055 ft 554 kts 97°
2026-05-05 01:24 -34.46828 149.60651 33107 ft 556 kts 97°
2026-05-05 01:24 -34.47340 149.65287 32209 ft 556 kts 97°
2026-05-05 01:24 -34.47865 149.69933 31284 ft 557 kts 98°
2026-05-05 01:24 -34.48399 149.74591 30358 ft 557 kts 98°
2026-05-05 01:25 -34.48934 149.79245 29342 ft 557 kts 98°
2026-05-05 01:25 -34.49464 149.83885 28528 ft 552 kts 98°
2026-05-05 01:25 -34.49950 149.88451 27813 ft 544 kts 95°
2026-05-05 01:25 -34.49865 149.92992 27161 ft 533 kts 81°
2026-05-05 01:26 -34.49034 149.97314 26509 ft 521 kts 69°
2026-05-05 01:26 -34.47614 150.01308 25863 ft 511 kts 61°
2026-05-05 01:26 -34.45923 150.05057 25223 ft 503 kts 58°
2026-05-05 01:26 -34.44173 150.08639 24582 ft 497 kts 57°
2026-05-05 01:27 -34.42411 150.12226 23952 ft 493 kts 58°
2026-05-05 01:27 -34.40684 150.15829 23243 ft 487 kts 59°
2026-05-05 01:27 -34.39051 150.19344 22596 ft 481 kts 59°
2026-05-05 01:27 -34.37450 150.22872 21972 ft 474 kts 60°
2026-05-05 01:28 -34.35889 150.26361 21497 ft 465 kts 60°
2026-05-05 01:28 -34.34355 150.29817 21224 ft 468 kts 60°
2026-05-05 01:28 -34.32811 150.33300 20974 ft 470 kts 60°
2026-05-05 01:28 -34.31268 150.36768 20650 ft 467 kts 60°
2026-05-05 01:29 -34.29740 150.40198 20067 ft 460 kts 60°
2026-05-05 01:29 -34.28221 150.43598 19434 ft 455 kts 60°
2026-05-05 01:29 -34.26722 150.46955 18786 ft 451 kts 61°
2026-05-05 01:29 -34.25255 150.50255 18079 ft 448 kts 61°
2026-05-05 01:30 -34.23792 150.53552 17393 ft 443 kts 61°
2026-05-05 01:30 -34.22336 150.56831 16728 ft 438 kts 61°
2026-05-05 01:30 -34.20905 150.60048 16068 ft 433 kts 61°
2026-05-05 01:30 -34.19485 150.63238 15406 ft 428 kts 61°
2026-05-05 01:31 -34.18078 150.66394 14746 ft 424 kts 61°
2026-05-05 01:31 -34.16680 150.69520 14085 ft 420 kts 61°
2026-05-05 01:31 -34.15312 150.72577 13388 ft 416 kts 60°
2026-05-05 01:31 -34.13926 150.75662 12717 ft 410 kts 61°
2026-05-05 01:32 -34.12576 150.78665 12076 ft 404 kts 61°
2026-05-05 01:32 -34.11262 150.81586 11445 ft 399 kts 61°
2026-05-05 01:32 -34.09959 150.84482 11184 ft 383 kts 62°
2026-05-05 01:32 -34.08721 150.87253 11053 ft 365 kts 62°
2026-05-05 01:33 -34.07550 150.89900 10920 ft 349 kts 62°
2026-05-05 01:33 -34.06434 150.92435 10788 ft 334 kts 62°
2026-05-05 01:33 -34.05360 150.94870 10465 ft 327 kts 62°
2026-05-05 01:33 -34.04288 150.97281 9987 ft 324 kts 62°
2026-05-05 01:34 -34.03258 150.99581 9467 ft 308 kts 62°
2026-05-05 01:34 -34.02245 151.01838 8943 ft 296 kts 63°
2026-05-05 01:34 -34.01601 151.04139 8435 ft 286 kts 86°
2026-05-05 01:34 -34.01863 151.06407 7941 ft 274 kts 116°
2026-05-05 01:35 -34.02979 151.08161 7436 ft 260 kts 148°
2026-05-05 01:35 -34.04584 151.09001 6925 ft 249 kts 173°
2026-05-05 01:35 -34.06294 151.09181 6373 ft 241 kts 184°
2026-05-05 01:35 -34.07935 151.09214 5817 ft 236 kts 184°
2026-05-05 01:36 -34.09562 151.09233 5285 ft 230 kts 184°
2026-05-05 01:36 -34.11127 151.09254 4881 ft 220 kts 185°
2026-05-05 01:36 -34.12650 151.09283 4515 ft 217 kts 184°